Location: Kaarina
(60.4167°N, 22.4167°E)
Time: 12:01:18
(UTC+03:00)

Cosmos 1975 - Pass Details

Date: 24 August 2019
Orbit: 542 x 562 km, 82.5° (Epoch: 17 September)

Event Time Altitude Azimuth Distance (km) Brightness Sun altitude
Exits shadow 23:43:23 19° 197° (SSW) 1,334 4.4 -15.4°
Maximum altitude 23:46:11 83° 284° (WNW) 559 2.8 -15.5°
Drops below altitude 10° 23:50:13 10° 13° (NNE) 1,827 6.2 -15.8°
Sets 23:52:23 0° 15° (NNE) 2,724 7.2 -15.9°
